Regional Weather Roundup
Issued by NWS

Home | Current Version | Previous Version | Text Only | Print | Product List | Glossary On
Versions: 1 2 3 4 5 6 7 8 9 10 11 12 13 14 15 16 17 18 19 20 21 22 23 24 25 26 27 28 29 30 31 32 33 34 35 36 37 38 39 40 41 42 43 44 45 46 47 48 49 50
317
ASUS43 KBIS 101602
RWRND

NORTH DAKOTA REGIONAL WEATHER ROUNDUP
NATIONAL WEATHER SERVICE BISMARCK ND
1000 AM CST SUN DEC 10 2017

NOTE: "FAIR" INDICATES FEW OR NO CLOUDS BELOW 12,000 FEET WITH NO
SIGNIFICANT WEATHER AND/OR OBSTRUCTIONS TO VISIBILITY.


NDZ001>003-009>011-017-101700-
NORTHWEST NORTH DAKOTA

CITY           SKY/WX    TMP DP  RH WIND       PRES   REMARKS
WILLISTON      CLOUDY    36  19  50 SW8       30.08R
MINOT          CLOUDY    37  23  56 W13       30.00R
MINOT AFB      CLOUDY    37  24  60 W9        29.98S
$$

NDZ018>021-031>035-040>046-101700-
SOUTHWEST NORTH DAKOTA

CITY           SKY/WX    TMP DP  RH WIND       PRES   REMARKS
BISMARCK       CLOUDY    37  22  54 W8        30.06S
DICKINSON      CLOUDY    37  20  50 W20       30.07S
GARRISON         N/A     34  22  61 W7        30.02S
HETTINGER ARPT MOSUNNY   37  14  38 W16       30.13S
$$

NDZ004>008-012>016-024-026-027-054-101700-
NORTHEAST NORTH DAKOTA

CITY           SKY/WX    TMP DP  RH WIND       PRES   REMARKS
GRAND FORKS    PTSUNNY   21  18  88 NW7       30.05R WCI  12
DEVILS LAKE    CLOUDY    26  22  84 SE3       30.00S
$$

NDZ022-023-025-028>030-036>039-047>053-101700-
SOUTHEAST NORTH DAKOTA

CITY           SKY/WX    TMP DP  RH WIND       PRES   REMARKS
FARGO          CLOUDY    22  18  85 NW8       30.05R WCI  12
JAMESTOWN      CLOUDY    30  25  81 NW9       30.01R
$$





USA.gov is the U.S. government's official web portal to all federal, state and local government web resources and services.